Wind_Speed
32 33 34 33 34 35 34 35 35 35 36 36 37 36 36 35 33 32 33 37 38 36 35 33 33 33 33 32 33 32 34 32 34 37 36 33 36 44 53 51 52 55 54 52 54
27 28 31 36 36 36 36 36 36 37 37 38 39 40 39 39 38 38 37 38 40 40 38 38 38 35 34 35 35 32 29 27 27 31 37 37 38 39 49 55 53 56 57 55 53
31 31 30 29 31 37 42 42 43 45 44 44 44 44 43 43 42 43 44 42 40 44 43 43 43 42 39 36 37 35 31 28 26 29 32 34 42 41 43 52 57 58 60 58 56
33 33 34 36 37 37 36 37 42 48 50 49 49 49 47 46 48 46 50 48 44 44 47 45 45 44 42 41 38 39 38 33 30 31 33 32 39 44 45 48 54 59 62 59 57
34 35 37 38 40 42 44 47 49 52 54 55 54 53 53 51 43 50 54 53 49 50 49 50 46 45 44 42 42 42 40 39 35 35 34 33 33 41 49 51 53 57 63 64 57
37 38 40 41 43 45 47 47 49 54 56 58 61 62 62 59 48 51 55 56 55 53 54 53 53 50 48 48 47 45 43 43 43 40 38 35 34 38 42 50 52 55 57 63 65
38 40 43 46 47 49 51 54 56 60 60 61 62 62 64 53 48 50 54 61 60 57 57 57 58 57 53 52 51 53 51 48 46 45 43 41 36 36 41 46 50 52 53 56 62
42 46 48 51 52 52 55 54 59 61 65 69 70 73 71 63 57 55 57 59 61 64 64 63 61 61 60 57 55 56 54 51 48 48 45 42 37 37 40 44 45 48 52 55 56
51 55 58 60 61 64 67 68 71 72 72 74 77 79 76 72 71 67 62 65 62 62 65 67 67 66 64 61 59 59 53 51 51 48 45 44 43 31 37 36 43 47 49 51 55
60 64 69 70 71 75 78 81 83 84 82 85 84 84 81 79 78 78 75 65 63 63 63 68 72 71 67 65 62 58 54 54 51 44 45 42 44 32 35 37 37 45 48 49 51
71 74 77 81 84 87 88 89 93 92 89 84 83 82 81 73 74 75 76 76 69 67 67 67 72 73 68 63 59 55 55 51 47 43 46 46 46 39 34 38 35 40 47 49 49
79 83 86 90 93 94 98 98 96 94 94 77 70 71 65 64 75 65 66 70 72 67 69 68 72 65 68 64 61 59 56 55 49 40 43 47 45 42 33 39 36 37 44 48 49
85 87 90 92 96 101 101 94 84 76 73 58 51 47 51 56 60 56 67 70 72 70 70 69 64 68 64 62 63 61 59 56 49 39 42 46 45 39 37 39 39 39 44 47 48
88 92 92 95 100 98 89 80 64 51 51 36 31 34 32 30 36 45 50 58 65 70 66 66 60 65 63 61 62 62 58 53 46 38 42 47 46 38 39 38 36 36 39 44 43
92 92 96 99 94 84 68 46 29 31 26 13 10 13 11 13 17 19 29 42 54 61 64 64 65 67 64 60 56 55 50 45 38 37 40 44 45 38 38 32 29 33 36 40 43
91 95 98 87 78 58 33 24 27 26 27 11 17 18 13 11 13 10 27 29 32 45 54 54 56 56 51 49 46 46 42 43 37 41 45 44 45 37 38 33 32 31 34 36 38
93 98 92 79 56 30 26 29 28 27 25 23 20 11 14 20 19 6 19 26 27 31 40 49 52 50 51 49 49 50 48 46 43 46 47 42 47 39 37 34 30 29 28 31 34
95 88 75 59 37 23 26 27 28 22 21 19 18 17 12 22 25 11 20 18 27 23 31 45 48 44 49 48 52 55 53 53 54 52 51 46 48 42 39 37 29 28 29 31 30
88 74 63 36 26 24 25 27 28 32 28 22 19 14 12 14 10 3 6 4 14 20 27 28 36 38 40 45 48 49 50 50 51 49 48 45 46 45 37 29 30 30 28 29 27
78 63 48 24 19 25 26 32 31 26 28 23 21 14 8 12 11 5 12 10 11 21 24 25 28 38 36 39 40 48 45 49 49 49 48 45 44 45 37 28 29 30 30 28 25
69 55 38 23 27 34 29 27 25 23 23 22 23 18 6 13 16 5 13 18 7 21 28 27 28 36 34 43 41 48 46 49 48 47 47 45 46 45 34 32 29 30 26 25 28
61 45 37 24 27 29 27 27 22 22 16 20 21 21 9 10 11 6 4 13 14 20 20 23 33 31 42 33 41 46 48 50 46 46 44 41 46 41 36 34 29 28 26 24 22
55 34 35 16 14 20 28 26 26 25 21 13 17 15 12 4 4 11 5 4 5 7 20 23 28 26 37 42 44 47 46 47 47 42 38 35 39 39 35 30 34 31 28 23 21
51 31 30 24 19 23 24 26 19 24 20 18 17 9 6 2 8 7 3 4 5 3 17 28 29 25 35 43 37 43 41 44 47 43 37 34 27 31 34 25 25 29 26 22 23
46 29 31 26 14 19 25 25 24 18 20 16 11 8 11 3 8 10 12 5 5 6 23 21 27 25 27 35 30 38 39 42 46 41 33 27 22 24 29 27 24 21 21 16 19
42 27 24 26 17 15 21 20 21 21 21 14 11 10 10 5 10 18 16 10 3 5 21 29 25 24 26 27 28 34 37 41 41 39 34 33 30 30 31 26 19 14 17 10 15
40 23 23 25 19 16 18 20 21 17 22 24 9 8 9 8 9 12 8 2 6 8 40 34 25 27 28 28 29 40 41 43 38 35 31 31 27 30 30 27 19 16 14 10 10
Wind_Direction
293 291 289 287 286 284 280 277 276 274 272 270 267 262 261 260 257 256 252 256 257 251 255 255 258 258 258 255 249 248 250 248 245 241 237 233 228 220 220 221 227 237 241 242 246
308 303 296 287 284 282 282 278 275 276 275 274 271 267 265 261 257 259 256 255 256 255 252 249 250 248 252 254 255 250 252 253 251 246 239 235 233 225 223 223 225 231 241 241 241
311 306 304 302 296 284 279 277 275 276 276 275 273 271 269 265 261 259 260 255 255 256 251 249 248 247 247 251 251 254 249 254 245 243 240 231 230 232 227 226 226 229 234 239 241
313 312 307 302 298 295 292 286 280 276 274 273 272 271 268 265 263 261 259 259 254 253 255 251 249 248 246 246 248 245 246 248 247 243 240 232 227 229 232 230 231 230 233 236 241
312 307 302 298 296 294 291 288 285 281 278 275 273 270 268 266 267 260 258 259 255 252 250 252 249 249 248 245 244 241 241 242 246 250 247 241 230 225 230 229 233 234 233 235 237
311 307 302 297 295 293 291 288 285 281 279 277 275 274 271 268 266 262 260 256 256 251 249 249 251 248 244 242 238 236 239 243 249 251 252 250 240 228 229 231 231 233 236 237 238
309 308 305 300 297 293 288 285 284 281 278 275 272 269 267 271 273 265 258 257 256 252 247 249 248 248 244 242 240 241 241 244 247 247 247 246 241 241 232 234 232 234 237 238 238
310 308 306 305 304 301 299 290 285 282 279 277 273 271 265 266 267 264 259 253 251 251 249 247 247 245 244 242 241 241 243 240 240 245 249 248 249 246 241 238 240 236 237 239 243
314 315 315 314 308 305 302 297 291 288 284 278 274 272 269 264 265 261 256 253 249 246 247 246 243 242 242 241 242 240 237 240 239 242 249 250 252 244 245 239 237 239 239 240 242
321 319 317 316 311 307 305 301 295 291 287 284 279 275 273 270 265 261 257 248 247 245 244 244 243 242 240 238 235 236 239 243 250 254 254 249 251 245 242 241 236 235 237 239 243
325 322 321 318 313 310 306 302 298 293 289 285 280 276 273 269 260 256 255 252 244 239 240 242 241 242 244 244 244 244 247 251 250 249 247 244 246 242 231 235 232 232 235 236 239
326 325 322 318 315 311 308 307 304 300 292 289 286 276 266 259 257 253 250 250 247 238 235 235 240 241 240 239 240 241 243 246 250 244 243 245 242 242 230 236 231 230 230 234 234
327 324 321 318 317 316 314 311 307 300 294 293 280 271 264 259 259 248 242 238 240 236 234 233 235 238 237 235 236 236 239 243 245 239 237 242 241 239 233 233 234 233 229 231 234
326 325 325 323 322 321 317 314 311 305 303 308 286 275 273 275 260 254 247 241 238 238 231 229 226 227 230 229 231 233 236 239 237 231 231 238 240 233 232 234 236 234 236 235 237
329 330 329 329 327 322 325 328 350 352 355 344 313 286 229 247 240 240 244 243 237 238 235 230 222 226 223 224 223 227 229 232 229 228 226 234 240 231 234 227 226 233 235 238 241
332 331 334 332 328 334 347 7 15 7 3 327 306 247 219 234 204 197 228 238 236 232 231 229 227 229 227 222 222 222 218 219 218 218 222 226 233 224 229 224 220 223 228 235 238
335 335 336 334 337 353 10 8 5 11 357 358 356 302 232 215 195 188 225 232 237 235 226 221 221 219 221 215 211 213 208 209 206 213 222 217 227 222 222 224 218 223 224 230 234
337 339 339 341 350 359 2 5 6 3 358 352 352 344 262 241 255 139 221 232 225 219 215 209 209 204 211 211 208 207 205 204 207 212 214 206 218 218 216 218 214 217 220 223 224
342 341 340 348 357 1 360 354 353 348 344 348 349 322 305 270 244 279 105 95 206 217 196 194 199 200 206 207 206 203 205 205 205 211 213 210 217 222 218 217 215 216 217 222 226
344 345 345 355 5 359 360 352 348 341 343 342 356 347 256 248 207 176 88 207 201 194 183 182 196 191 202 202 207 207 204 195 203 207 212 209 216 221 217 209 211 214 219 224 230
345 346 350 352 1 357 349 0 14 7 26 16 10 355 314 219 196 130 47 86 177 190 182 183 175 188 196 195 185 198 199 200 203 205 214 212 213 216 211 211 215 224 225 227 231
345 347 352 350 355 352 357 3 10 22 16 31 24 16 4 221 236 229 349 18 56 186 197 185 187 184 188 185 193 203 196 197 202 203 212 214 213 212 214 214 214 228 229 225 230
347 348 354 339 329 349 360 0 0 15 8 11 10 23 360 225 223 230 303 30 18 40 183 196 183 171 188 190 188 201 202 197 194 192 204 208 207 210 214 217 221 219 220 222 222
348 349 355 344 334 342 346 357 4 3 14 14 14 31 34 90 183 188 207 249 2 321 178 188 190 199 197 191 191 194 200 199 192 188 195 206 201 206 212 203 201 215 223 219 207
349 349 347 349 342 344 343 348 0 11 20 15 43 42 28 82 203 221 185 182 25 155 167 182 194 192 188 189 197 197 196 196 190 188 194 193 201 194 200 196 204 216 218 189 212
350 351 357 353 345 347 349 342 2 7 18 25 26 31 48 75 145 173 205 228 63 95 166 189 186 181 186 190 192 194 193 191 189 194 193 202 202 202 207 206 203 197 198 194 214
350 344 351 355 347 341 343 347 6 22 16 4 13 55 30 79 154 182 195 293 12 81 172 188 179 181 183 188 198 189 193 193 193 201 216 213 209 214 211 206 204 198 187 221 261
Height
5817 5814 5812 5809 5808 5805 5803 5801 5800 5797 5795 5793 5793 5792 5791 5790 5790 5789 5790 5789 5787 5789 5789 5789 5790 5790 5791 5792 5794 5796 5798 5803 5809 5815 5819 5822 5824 5828 5830 5833 5837 5838 5842 5849 5853
5811 5808 5806 5803 5801 5798 5796 5794 5791 5789 5787 5785 5784 5783 5783 5782 5782 5782 5782 5780 5780 5780 5782 5781 5782 5783 5784 5786 5788 5791 5794 5797 5803 5805 5807 5812 5816 5820 5823 5825 5829 5831 5833 5839 5845
5806 5803 5800 5797 5793 5791 5789 5786 5783 5780 5777 5775 5774 5773 5773 5772 5773 5773 5770 5770 5771 5771 5771 5773 5773 5775 5778 5780 5782 5785 5788 5789 5792 5794 5797 5802 5807 5810 5817 5820 5822 5822 5826 5829 5837
5801 5798 5794 5790 5787 5784 5780 5776 5772 5768 5765 5763 5762 5761 5761 5761 5761 5761 5757 5759 5760 5760 5760 5762 5763 5765 5768 5771 5773 5775 5779 5782 5784 5785 5789 5794 5799 5805 5808 5813 5812 5816 5818 5824 5828
5796 5792 5787 5783 5779 5774 5770 5765 5761 5756 5752 5750 5747 5745 5745 5747 5753 5745 5744 5745 5747 5747 5748 5749 5752 5755 5759 5762 5764 5766 5771 5773 5775 5776 5781 5786 5793 5795 5796 5801 5805 5809 5813 5817 5821
5789 5784 5779 5774 5769 5764 5759 5753 5747 5741 5737 5734 5730 5727 5727 5730 5735 5732 5729 5729 5732 5734 5735 5737 5739 5742 5746 5750 5754 5757 5761 5764 5768 5769 5772 5778 5784 5786 5789 5791 5796 5800 5806 5812 5816
5781 5776 5770 5765 5760 5753 5746 5739 5732 5725 5722 5717 5710 5705 5706 5719 5715 5713 5713 5712 5714 5717 5721 5721 5723 5728 5734 5738 5744 5745 5750 5755 5759 5761 5764 5768 5775 5779 5782 5782 5786 5793 5798 5802 5806
5772 5765 5757 5751 5745 5738 5731 5725 5716 5710 5703 5695 5689 5683 5682 5695 5692 5692 5689 5694 5694 5696 5701 5704 5707 5712 5717 5725 5730 5734 5739 5743 5748 5751 5756 5761 5767 5771 5773 5777 5780 5786 5791 5795 5799
5760 5752 5743 5735 5726 5716 5707 5700 5690 5686 5681 5672 5665 5659 5661 5666 5662 5664 5668 5667 5671 5677 5680 5682 5689 5696 5702 5711 5717 5722 5726 5732 5737 5742 5746 5751 5755 5764 5764 5768 5773 5777 5783 5789 5793
5746 5736 5726 5716 5704 5691 5681 5669 5660 5652 5648 5638 5633 5631 5631 5634 5631 5630 5631 5643 5650 5657 5661 5664 5670 5676 5687 5696 5704 5710 5717 5722 5731 5740 5738 5742 5745 5754 5754 5759 5764 5769 5774 5780 5786
5731 5719 5708 5695 5679 5663 5652 5639 5626 5617 5612 5606 5599 5600 5597 5594 5591 5597 5605 5614 5624 5632 5640 5646 5650 5661 5681 5688 5696 5702 5708 5714 5720 5726 5728 5730 5733 5741 5746 5748 5753 5759 5765 5771 5777
5714 5701 5687 5672 5654 5635 5617 5601 5584 5569 5567 5570 5568 5556 5562 5560 5556 5576 5584 5591 5596 5612 5615 5621 5635 5657 5657 5668 5679 5688 5695 5701 5707 5715 5718 5720 5724 5730 5738 5739 5744 5751 5756 5761 5766
5697 5682 5666 5649 5627 5608 5587 5568 5551 5534 5522 5538 5534 5534 5530 5532 5536 5553 5550 5561 5572 5581 5592 5606 5627 5630 5641 5653 5664 5676 5683 5689 5696 5703 5707 5711 5716 5722 5729 5732 5736 5743 5749 5754 5759
5681 5664 5644 5628 5603 5579 5558 5537 5522 5510 5502 5509 5509 5511 5516 5515 5521 5525 5537 5546 5553 5564 5577 5586 5605 5611 5623 5637 5649 5660 5669 5677 5684 5690 5697 5701 5708 5715 5719 5724 5730 5735 5742 5748 5754
5664 5644 5623 5599 5581 5559 5539 5522 5513 5506 5502 5502 5503 5504 5509 5513 5515 5521 5526 5530 5543 5553 5558 5579 5586 5592 5607 5625 5634 5647 5658 5668 5675 5679 5688 5694 5701 5708 5711 5719 5724 5729 5735 5742 5747
5646 5627 5609 5585 5564 5546 5533 5525 5517 5514 5508 5505 5503 5501 5506 5508 5512 5516 5522 5525 5532 5536 5548 5561 5577 5583 5606 5615 5626 5636 5648 5656 5661 5668 5677 5685 5692 5702 5704 5711 5717 5723 5728 5735 5741
5632 5611 5591 5573 5555 5545 5538 5530 5525 5517 5515 5511 5506 5503 5505 5506 5510 5512 5516 5519 5525 5529 5538 5550 5561 5578 5587 5598 5609 5619 5631 5641 5649 5657 5669 5679 5682 5693 5699 5705 5713 5719 5724 5729 5734
5621 5598 5579 5563 5554 5546 5540 5534 5528 5522 5516 5512 5509 5507 5507 5506 5506 5511 5514 5514 5518 5526 5533 5540 5550 5564 5576 5586 5600 5607 5619 5628 5635 5646 5657 5667 5673 5683 5692 5699 5709 5714 5718 5723 5727
5612 5593 5577 5565 5557 5550 5543 5536 5529 5523 5517 5514 5511 5508 5505 5506 5509 5510 5511 5515 5519 5526 5533 5541 5551 5562 5571 5582 5593 5601 5613 5628 5634 5645 5653 5663 5671 5678 5687 5698 5703 5707 5712 5717 5721
5607 5591 5579 5570 5561 5555 5547 5540 5531 5524 5517 5513 5509 5506 5506 5507 5509 5512 5514 5519 5523 5526 5534 5542 5551 5560 5570 5578 5589 5602 5615 5619 5630 5640 5647 5659 5667 5673 5683 5692 5697 5702 5707 5712 5717
5598 5588 5579 5571 5565 5557 5550 5543 5536 5528 5522 5517 5512 5509 5507 5509 5511 5513 5515 5518 5523 5529 5536 5542 5549 5559 5566 5573 5585 5593 5602 5617 5627 5637 5643 5654 5662 5669 5680 5686 5692 5696 5702 5707 5711
5596 5586 5579 5573 5568 5561 5553 5544 5540 5533 5527 5522 5517 5513 5512 5513 5515 5517 5519 5519 5523 5532 5538 5543 5550 5557 5565 5577 5586 5591 5601 5612 5622 5632 5639 5648 5659 5666 5674 5682 5687 5692 5697 5702 5706
5596 5586 5578 5572 5569 5565 5556 5549 5541 5535 5530 5525 5521 5517 5515 5517 5520 5522 5524 5525 5528 5533 5538 5543 5549 5554 5563 5572 5578 5588 5600 5611 5620 5631 5638 5646 5654 5662 5670 5677 5682 5687 5692 5697 5701
5592 5585 5581 5572 5568 5563 5559 5553 5547 5540 5534 5529 5525 5522 5520 5519 5523 5526 5528 5529 5531 5533 5538 5543 5550 5557 5563 5571 5580 5586 5599 5610 5619 5627 5637 5645 5653 5658 5667 5674 5678 5684 5688 5693 5697
5591 5584 5577 5573 5569 5565 5559 5553 5549 5543 5537 5532 5530 5527 5526 5524 5524 5528 5530 5531 5534 5535 5538 5544 5552 5559 5565 5575 5582 5592 5599 5608 5617 5628 5637 5644 5651 5658 5665 5670 5677 5682 5685 5688 5692
5590 5584 5579 5572 5567 5565 5560 5555 5551 5546 5540 5537 5533 5531 5529 5528 5528 5530 5531 5532 5533 5535 5540 5545 5552 5561 5568 5575 5583 5593 5602 5610 5619 5627 5633 5641 5647 5653 5660 5668 5674 5678 5682 5685 5688
5590 5584 5578 5573 5569 5565 5561 5556 5552 5547 5544 5539 5536 5534 5533 5532 5532 5534 5534 5534 5534 5535 5542 5548 5556 5563 5569 5578 5585 5594 5600 5608 5619 5627 5633 5638 5645 5651 5658 5665 5670 5672 5677 5680 5682